GEFSNGP_500_meanwind_042.txt.gz
Wind_Speed
13 13 14 17 20 23 26 30 34 36 40 44 46 48 50 53 56 58 61 62 64 66 68 70 72 73 74 74 73 73 72 72 73 75 76 77 77 77 77 77 75 73 70 67
16 16 17 19 22 27 31 35 37 39 42 46 49 51 54 56 59 62 65 67 69 72 74 75 75 73 70 67 64 61 59 58 59 60 63 66 69 73 75 76 78 77 75 73
20 20 20 21 26 29 33 37 41 43 45 49 52 54 57 59 63 67 69 71 73 74 73 70 65 59 53 48 45 41 39 37 37 38 39 42 45 49 54 59 65 70 73 74
23 24 24 27 29 32 36 39 43 45 48 52 55 57 59 63 67 69 71 72 71 67 61 54 46 40 36 34 31 30 29 30 31 31 31 32 33 35 36 39 43 49 55 62
25 25 28 33 34 37 40 43 46 49 53 56 59 62 63 66 69 70 69 65 60 53 46 40 36 34 33 32 33 34 35 35 35 34 33 32 32 31 32 32 33 35 38 43
28 30 33 36 39 42 45 48 52 55 58 61 63 66 67 69 69 67 62 56 49 44 40 38 36 37 37 38 39 39 39 39 38 37 35 33 32 31 30 29 29 30 31 33
30 33 37 39 43 45 47 50 52 55 59 63 66 69 70 69 66 60 54 48 44 42 41 40 40 41 42 42 42 43 43 42 40 38 36 35 33 31 29 28 27 26 26 28
33 36 40 42 45 47 50 53 57 60 64 67 69 70 69 65 59 53 49 45 44 43 43 43 44 45 45 46 46 46 45 43 41 39 37 35 33 31 29 26 25 24 23 24
35 38 41 44 47 50 54 57 60 64 67 69 70 69 66 60 54 49 46 45 45 46 46 46 47 49 49 49 48 48 46 44 41 39 37 35 33 30 29 26 24 22 21 21
37 40 43 47 50 53 55 59 62 66 68 70 70 67 62 56 51 47 46 46 47 48 49 49 50 50 51 50 49 47 45 42 40 38 36 34 32 30 28 26 24 22 21 20
39 43 45 47 51 54 56 59 63 66 69 70 69 65 59 53 49 48 48 49 49 50 51 51 51 51 50 49 46 44 42 40 39 36 34 32 30 29 27 25 23 21 20 19
41 44 47 49 52 55 58 61 65 67 69 69 67 61 55 51 50 50 50 51 51 51 52 52 51 49 47 45 43 41 38 36 35 34 31 29 28 27 26 25 23 21 20 19
42 44 47 49 53 56 59 62 65 68 69 68 63 57 53 51 51 52 52 53 52 52 51 50 48 45 44 42 39 36 33 30 29 28 27 26 26 25 25 24 22 21 19 18
44 46 47 50 53 56 60 63 66 67 67 65 60 54 52 52 53 54 54 54 53 51 49 47 44 42 40 36 33 29 26 24 21 21 21 21 22 23 24 23 22 21 20 19
44 47 49 51 54 57 60 63 65 66 66 62 56 53 52 53 54 54 54 54 51 48 46 43 40 38 36 31 26 23 20 18 16 15 15 16 17 20 22 21 21 21 20 19
44 47 49 52 54 57 60 63 65 66 65 60 54 52 52 54 55 55 53 51 48 45 42 39 37 35 31 26 21 17 14 11 10 9 10 11 13 16 18 19 20 20 21 20
45 47 50 52 55 57 60 64 65 66 64 58 53 52 53 54 54 53 51 49 46 43 40 37 35 31 28 23 19 13 8 4 2 5 7 9 12 15 16 18 20 20 21 22
45 48 51 54 56 58 60 63 64 65 62 56 51 51 53 53 53 51 50 48 44 41 39 36 34 30 26 21 17 13 9 6 6 8 9 12 14 15 16 18 20 22 23 23
45 48 50 53 55 57 60 62 63 63 60 53 49 50 51 51 51 49 48 46 44 41 38 35 33 29 25 22 19 17 14 13 12 12 12 14 16 16 18 20 22 24 24 26
45 48 50 52 54 56 58 60 62 61 58 51 47 47 48 48 47 46 46 45 43 41 38 35 32 30 27 24 22 20 18 17 16 15 15 17 19 20 22 24 25 26 28 30
45 47 49 51 53 55 57 59 60 60 56 49 45 44 44 45 44 43 43 41 40 39 37 35 32 29 27 25 23 22 20 20 20 20 20 22 23 24 25 26 27 29 31 32
45 46 48 49 51 53 55 57 58 58 55 48 42 41 41 40 40 40 40 39 38 37 35 33 32 31 29 28 27 26 25 24 24 25 26 26 27 27 28 29 30 32 32 32
44 46 47 48 50 51 53 55 56 56 54 47 40 37 37 37 36 36 36 36 36 35 34 33 32 31 31 29 29 29 29 30 30 30 30 30 30 31 31 32 33 33 32 32
44 45 46 47 49 50 51 52 53 54 52 46 39 34 33 32 32 32 32 33 33 32 31 29 29 29 29 29 29 30 30 30 30 30 30 31 31 31 31 31 31 31 31 31
43 44 45 45 47 48 48 49 50 51 50 44 37 31 29 28 27 27 28 29 29 28 27 26 26 27 27 27 28 28 28 28 28 28 28 28 28 29 29 28 29 29 28 28
42 43 43 44 45 46 47 47 48 48 48 43 35 28 26 24 23 23 23 24 25 24 23 22 22 23 24 24 24 24 25 26 25 25 24 24 25 25 25 25 25 25 24 24
42 42 42 43 44 45 45 45 45 46 46 43 35 27 23 21 20 18 18 19 20 20 19 19 18 18 18 19 20 20 21 21 22 22 21 21 21 20 20 20 20 20 19 19

GEFSNGP_500_meanwind_048.txt.gz
Wind_Speed
13 16 18 18 18 20 23 26 29 33 36 39 42 45 48 51 54 58 60 63 66 68 70 70 70 68 65 62 59 55 51 47 45 43 42 41 40 41 42 44 48 52 57 62
14 17 18 17 19 22 25 28 31 34 37 40 44 47 50 54 58 61 63 65 67 69 69 67 65 61 57 54 50 46 42 40 39 37 35 34 31 30 31 32 34 36 39 45
14 17 19 19 22 25 29 32 34 38 41 44 47 49 53 57 61 64 65 67 67 66 64 61 58 54 51 47 44 42 40 39 38 36 35 33 32 31 31 30 30 29 30 31
19 21 22 23 27 30 34 36 38 42 45 48 51 53 56 60 63 64 65 64 63 61 59 55 52 50 48 46 44 43 41 40 40 39 38 36 35 34 34 33 32 32 31 31
24 26 27 29 31 34 37 39 42 45 48 50 53 55 57 60 62 63 63 63 61 59 55 53 51 50 49 47 46 45 44 43 42 41 41 40 39 38 36 35 34 33 32 31
25 28 30 31 33 36 40 41 45 48 51 54 57 61 62 63 64 64 63 61 59 56 54 54 53 52 51 51 49 48 46 44 44 44 43 42 41 39 38 37 36 34 33 31
26 29 31 33 35 38 40 44 47 51 54 57 60 63 64 64 63 62 60 58 56 55 55 55 55 54 53 51 50 48 48 47 46 45 44 42 41 40 38 37 35 34 32 30
28 30 32 34 37 40 43 47 51 54 56 59 61 62 63 63 61 59 58 56 56 56 55 55 55 54 53 52 49 47 45 45 44 43 42 41 39 38 36 35 34 32 30 29
28 30 33 36 39 43 46 49 52 54 57 59 61 62 62 61 59 57 57 56 57 57 56 54 53 52 50 48 45 43 41 40 40 39 37 36 35 34 34 33 32 30 28 26
27 30 34 37 40 42 45 48 51 54 57 60 61 61 62 58 56 56 56 57 57 56 55 53 51 49 47 44 42 39 36 35 34 33 32 31 30 30 30 29 29 28 26 24
28 31 34 36 39 42 45 48 51 54 57 59 60 61 59 56 55 55 56 57 57 56 55 52 49 46 43 40 37 34 31 29 28 27 27 27 26 26 26 26 25 25 24 22
30 32 35 37 40 43 47 50 52 55 57 58 60 61 57 54 54 55 56 56 56 55 53 50 47 43 39 36 34 31 27 24 22 20 20 20 20 21 22 23 23 22 21 20
30 33 35 38 41 45 48 50 53 56 58 58 59 59 54 52 53 54 55 55 55 54 52 49 47 43 38 35 32 29 25 19 16 13 11 12 14 16 17 19 20 20 19 17
30 33 35 38 41 45 48 51 53 55 57 57 58 56 52 51 51 52 53 54 53 52 51 49 47 43 38 35 32 28 23 16 11 7 4 5 8 12 14 16 17 17 17 16
31 33 35 39 42 46 49 51 52 54 55 56 57 55 50 49 50 51 51 51 51 51 49 48 46 43 39 34 32 28 23 17 11 6 2 2 6 9 12 15 16 17 16 14
32 33 36 39 42 46 49 50 52 54 55 56 56 54 49 47 48 49 49 49 50 50 48 47 45 43 39 35 32 29 26 20 15 10 6 6 8 11 14 15 16 16 15 13
32 34 36 39 42 46 49 51 53 54 55 55 54 53 48 45 45 45 45 46 47 47 47 46 45 42 39 36 32 29 27 24 19 15 12 10 11 13 15 16 16 16 15 15
32 35 37 40 43 46 49 51 52 53 54 54 53 52 47 43 42 42 42 43 43 44 44 44 43 42 39 36 32 29 27 25 21 18 15 14 14 15 16 17 18 18 18 19
34 36 38 41 43 46 49 50 52 53 53 53 51 50 46 42 39 39 39 39 39 40 41 42 41 40 39 36 33 30 28 25 23 21 19 18 18 18 19 20 20 21 22 23
35 37 39 41 44 46 48 49 50 51 51 51 50 48 45 41 36 35 35 36 36 38 39 39 39 38 37 36 33 31 29 26 24 23 22 21 21 22 23 24 24 24 26 26
37 38 40 42 44 46 47 48 49 50 50 49 48 46 44 40 35 32 31 32 33 34 35 36 36 36 36 35 33 32 30 28 27 25 24 24 24 24 25 25 26 27 27 28
38 40 41 43 44 46 47 47 48 48 48 47 46 44 41 38 33 30 29 29 29 30 31 32 33 33 33 33 33 32 30 28 27 26 25 25 25 25 26 26 26 27 28 29
40 41 42 43 44 45 46 46 47 47 46 45 44 42 40 37 32 27 25 25 25 25 27 28 29 29 29 29 30 30 30 29 27 26 25 25 25 25 25 25 26 27 28 28
42 42 43 44 44 44 45 45 45 45 45 44 43 40 38 36 32 27 23 22 21 21 22 24 24 25 25 25 26 27 27 28 28 27 26 26 26 26 26 26 27 27 28 28
43 43 44 44 44 44 44 43 43 42 42 42 41 39 37 34 31 26 22 19 18 18 18 19 19 20 21 21 22 22 23 24 25 26 26 27 27 27 27 27 28 28 28 28
44 44 44 44 44 43 42 42 41 40 39 39 38 37 35 33 30 25 21 17 16 15 14 14 15 15 16 17 18 18 20 21 21 22 23 24 24 24 24 25 25 25 25 25
43 43 43 43 43 42 41 40 39 38 37 37 36 34 33 32 29 25 20 16 13 12 11 11 10 10 11 12 13 14 15 16 17 18 18 19 19 19 19 20 20 21 21 21

GEFSNGP_500_meanwind_054.txt.gz
Wind_Speed
12 12 13 15 17 19 22 24 27 30 32 34 37 39 42 45 48 50 53 54 55 56 56 55 56 57 58 59 60 60 61 60 59 56 54 52 49 46 43 41 38 36 35 35
14 15 16 18 20 22 25 27 29 31 33 36 39 42 45 48 51 53 54 55 56 55 54 54 56 57 58 59 60 62 62 62 60 57 54 52 49 46 43 41 38 35 33 32
17 17 18 20 23 25 26 28 31 33 36 38 40 43 48 50 52 54 56 56 55 54 53 55 57 59 60 61 61 62 62 61 59 56 54 51 49 47 44 43 41 38 36 34
18 19 20 22 24 26 27 29 31 34 37 41 43 45 49 52 54 55 56 56 54 53 53 56 58 60 61 61 61 61 60 58 56 53 51 48 47 45 44 43 42 40 38 36
19 21 22 24 26 28 30 30 33 36 40 43 45 46 47 51 53 54 55 54 53 53 55 57 59 60 60 60 60 59 57 54 50 48 47 45 44 43 42 41 41 40 39 36
21 23 25 26 28 30 32 33 35 39 42 45 48 50 50 52 54 55 55 54 53 54 56 58 59 60 60 60 59 57 54 50 47 45 42 41 40 39 39 39 39 39 38 36
23 24 25 27 29 31 34 36 38 41 44 46 50 53 54 55 56 56 56 54 53 54 56 58 59 60 59 58 56 53 50 46 43 41 38 35 35 35 35 35 37 38 37 36
23 24 25 27 29 31 33 35 38 41 44 47 50 52 54 55 56 56 55 53 52 53 56 58 59 60 58 56 54 50 47 43 40 36 32 30 28 28 30 32 33 35 35 34
24 25 26 28 30 31 33 36 39 42 45 48 51 53 54 55 56 56 54 52 52 53 55 57 59 59 57 54 52 49 45 40 36 32 28 25 22 21 22 25 28 30 32 31
24 25 26 28 29 31 34 37 40 44 47 49 52 54 55 56 56 55 53 51 51 53 55 57 58 58 55 52 50 47 42 38 34 29 24 20 17 16 16 18 21 24 26 27
24 26 27 29 30 32 35 38 41 44 47 50 52 54 55 55 56 54 52 51 51 52 54 56 56 55 53 51 49 46 41 36 31 26 20 16 12 9 10 12 15 18 21 22
25 27 28 30 31 33 36 38 41 44 47 50 52 53 54 55 56 54 52 50 50 51 53 54 55 54 52 50 48 45 40 35 30 25 18 13 9 6 5 7 10 13 16 19
26 27 29 30 32 34 36 39 42 45 48 50 52 53 54 55 55 53 51 49 49 50 51 53 53 53 51 49 46 42 38 34 29 24 19 13 9 5 2 2 6 10 13 15
27 28 29 31 33 35 37 40 43 46 48 50 52 53 53 54 54 52 50 48 47 48 50 51 51 51 49 47 44 40 37 33 28 23 19 16 12 9 6 4 5 8 10 12
27 28 30 32 34 36 38 41 43 46 48 50 51 52 52 52 52 51 49 47 46 47 48 48 49 49 48 45 42 39 36 31 27 23 19 16 14 11 9 7 7 7 8 10
29 30 32 34 36 38 40 42 44 46 48 49 50 51 51 51 51 50 49 46 45 44 45 46 46 47 46 43 41 38 35 30 26 23 20 17 15 14 12 11 10 9 9 9
31 32 34 36 38 40 41 43 45 47 48 49 50 50 50 50 49 48 47 45 43 42 43 43 44 44 43 41 39 37 34 30 26 24 21 19 17 15 15 14 14 13 12 11
34 35 36 38 39 41 42 43 45 47 48 49 49 49 49 48 48 47 45 43 41 40 40 40 41 41 40 39 37 35 33 31 27 24 22 20 19 18 17 16 16 15 15 14
35 37 38 39 40 41 42 43 45 47 48 48 48 48 48 47 47 46 44 41 38 37 36 36 37 38 37 36 35 33 31 30 28 25 23 21 20 19 18 18 18 18 18 17
37 38 39 40 40 40 42 43 45 46 47 47 47 46 46 45 44 43 42 39 37 35 34 33 33 34 34 33 32 30 29 28 26 25 23 22 21 20 20 20 20 19 19 19
39 39 40 40 40 40 41 43 44 45 46 46 46 45 44 43 42 41 39 37 34 32 31 30 30 30 30 30 30 29 28 26 24 23 22 22 22 21 21 21 21 21 21 22
41 41 40 39 39 40 41 43 44 45 46 46 45 44 43 41 40 39 37 35 32 29 27 26 26 26 27 27 27 27 26 25 23 22 22 21 21 21 22 22 22 22 23 24
43 43 41 39 39 40 42 43 45 45 45 45 44 42 41 39 38 36 35 33 30 27 24 23 22 22 23 23 23 24 24 24 22 22 21 21 21 21 22 23 23 24 25 25
45 43 41 40 40 41 42 44 45 45 45 44 43 41 39 38 36 35 33 31 29 25 22 20 19 19 19 19 19 20 21 21 21 20 21 21 21 21 22 22 23 24 25 25
45 43 41 41 41 42 42 43 44 44 43 42 41 39 38 36 34 33 31 30 27 24 20 17 15 15 15 15 15 15 16 18 19 19 18 18 19 20 21 21 21 21 22 22
45 43 42 41 41 40 41 42 43 42 42 40 39 37 36 34 33 31 29 28 26 22 19 15 13 11 11 11 11 12 12 13 15 16 16 16 16 17 18 18 18 18 19 20
44 42 42 41 41 41 41 42 42 41 40 38 36 35 34 32 31 29 28 26 25 21 17 14 11 9 8 7 8 8 8 9 10 11 12 13 14 15 15 15 15 16 17 17

GEFSNGP_500_meanwind_060.txt.gz
Wind_Speed
9 11 13 15 16 16 17 17 18 21 23 25 28 31 34 36 39 42 44 45 47 48 49 49 48 47 47 47 48 49 51 53 55 56 58 58 58 56 54 54 52 51 52 52
11 13 15 17 17 17 18 19 20 21 24 26 29 33 36 38 42 44 46 47 49 49 50 50 48 47 47 48 50 51 53 55 56 57 58 57 55 53 51 50 49 48 48 48
14 16 17 17 17 18 19 21 22 23 25 28 30 34 37 40 44 46 48 49 50 50 51 50 49 48 48 49 51 53 55 56 57 57 56 54 52 49 46 44 44 44 44 45
16 17 17 17 18 18 19 21 23 25 27 29 32 35 39 42 45 48 50 51 51 51 51 50 49 48 49 50 53 55 55 55 55 55 53 50 47 44 42 41 40 40 41 41
16 18 19 19 19 20 20 21 23 25 28 31 33 37 41 45 48 50 52 53 53 53 52 50 49 49 50 51 53 54 54 54 53 52 49 46 42 39 37 36 36 35 36 37
18 19 19 21 21 21 22 24 25 27 29 33 36 39 42 46 49 51 53 54 53 53 51 50 49 49 50 52 53 53 53 52 50 48 45 41 38 35 32 31 30 30 30 31
19 20 21 22 22 23 25 26 27 29 32 35 38 42 44 47 50 52 54 54 53 52 50 49 49 49 50 51 52 52 51 49 47 44 41 37 33 30 27 25 23 23 24 26
19 21 23 23 23 24 25 26 28 31 33 36 39 43 46 49 51 53 54 54 52 51 49 49 48 48 49 50 50 49 48 46 44 40 37 34 31 27 23 19 17 18 19 22
21 22 23 23 24 25 25 27 29 31 34 37 41 44 47 50 52 54 54 53 51 50 48 48 48 48 48 48 47 47 46 44 41 38 34 32 29 25 20 16 13 12 13 17
22 22 23 23 24 25 26 28 30 32 36 39 42 46 49 51 53 54 54 52 50 49 47 47 47 46 46 46 46 46 45 43 39 36 33 30 27 23 19 15 11 8 8 12
22 23 23 23 24 25 27 29 31 34 37 41 44 47 50 52 53 53 53 51 49 48 47 46 45 45 45 44 44 44 43 41 38 34 32 29 26 22 18 14 9 5 5 9
23 23 23 24 25 27 28 30 33 36 39 43 46 49 50 52 52 52 52 50 48 47 45 45 44 43 43 43 42 42 41 39 36 33 31 28 24 21 18 14 9 5 1 6
23 23 24 25 27 28 30 32 35 38 41 44 47 49 50 51 51 51 50 49 47 46 44 43 43 42 41 41 41 40 39 37 34 32 30 28 24 21 18 14 11 6 2 4
23 24 25 27 29 31 32 35 37 40 42 45 47 48 49 50 50 49 49 47 46 45 43 42 41 41 40 39 39 38 37 35 32 31 29 27 24 21 18 15 11 8 5 3
25 26 28 30 31 33 35 37 39 41 44 46 47 48 48 48 49 49 48 46 45 44 42 40 39 39 38 38 37 36 35 33 31 29 28 27 24 21 19 16 12 10 7 5
28 29 30 32 33 35 37 39 41 43 44 46 46 47 47 47 48 48 47 45 44 42 40 39 38 37 36 36 35 34 33 31 29 28 27 25 23 21 19 17 15 12 10 8
31 32 33 34 35 37 38 40 41 43 44 45 45 45 45 45 46 47 46 45 43 41 39 37 36 35 34 34 34 32 30 29 28 26 25 23 22 21 19 18 16 14 13 10
34 35 35 36 37 38 39 40 42 42 43 44 44 44 44 44 45 45 45 43 42 40 38 35 34 33 32 32 31 30 28 27 26 24 23 22 20 20 19 18 17 15 14 12
37 37 37 38 39 39 39 40 41 42 42 42 42 43 43 44 44 44 44 42 40 38 36 33 31 30 29 29 29 28 27 25 24 23 22 21 19 18 18 18 17 17 16 14
39 39 39 39 39 39 39 40 41 42 42 41 42 42 42 42 42 42 42 40 39 36 34 32 29 27 26 26 26 25 25 24 22 21 20 20 19 18 19 19 19 19 18 18
41 40 40 40 39 39 39 40 41 41 41 41 40 40 40 40 39 39 39 38 37 35 32 30 27 24 22 22 22 22 22 22 21 20 19 18 18 18 18 19 20 20 21 21
41 40 40 40 40 40 40 41 41 40 40 39 38 38 37 37 37 38 38 36 35 33 31 28 25 22 20 19 19 19 19 19 19 19 19 18 18 18 17 18 19 20 20 20
42 42 42 42 41 40 40 40 40 39 39 38 36 36 36 36 36 36 36 35 34 31 29 26 23 20 17 16 15 15 15 16 16 16 17 18 18 18 18 18 19 19 20 20
44 44 44 44 42 41 40 39 39 38 37 37 36 35 35 35 35 34 34 33 32 30 27 24 21 18 15 13 12 12 12 12 13 13 13 15 16 17 17 18 18 18 19 19
48 46 45 44 43 42 41 40 38 37 37 36 36 35 35 34 33 32 32 31 30 28 25 22 19 16 13 11 9 8 8 9 9 10 11 12 14 15 15 16 16 17 17 18
51 48 46 45 43 41 41 39 38 37 36 36 35 35 33 32 32 31 30 29 28 26 24 21 18 15 12 9 7 5 5 5 6 7 8 9 11 12 13 14 15 16 17 18
52 51 49 47 45 43 41 40 39 38 36 35 34 33 33 31 30 30 29 28 27 25 22 20 17 14 11 8 6 4 2 1 2 4 6 7 8 9 11 12 13 14 15 16

GEFSNGP_500_meanwind_066.txt.gz
Wind_Speed
8 10 12 13 14 14 16 16 16 18 22 27 27 28 29 30 32 35 37 40 42 45 47 48 48 48 47 46 46 46 45 46 46 46 46 47 49 49 49 49 50 50 51 51
8 9 12 13 15 18 19 19 19 20 23 27 28 30 30 31 33 36 39 41 44 47 48 49 49 48 47 46 46 46 46 46 46 46 47 48 49 48 47 47 48 48 48 48
8 9 11 14 17 20 21 22 23 24 26 27 28 30 32 32 34 37 40 43 46 48 49 50 49 48 47 47 47 46 46 45 45 46 47 47 47 45 45 45 46 44 44 44
10 9 12 16 19 21 24 25 25 26 27 28 29 32 35 35 37 40 43 45 47 49 50 50 49 48 47 47 47 46 46 45 45 46 46 46 45 45 43 43 42 41 40 39
13 11 12 18 23 22 25 27 25 26 26 28 29 31 36 38 40 43 45 47 49 50 50 49 48 48 47 47 47 46 45 45 46 46 45 45 44 42 40 39 38 37 36 34
16 15 14 18 22 23 26 30 27 28 28 30 31 32 34 38 40 43 45 47 49 50 50 49 48 48 47 47 47 46 45 45 46 45 44 43 41 39 38 37 36 34 32 29
20 19 19 24 25 26 28 29 29 30 30 31 33 34 36 39 41 44 46 48 49 49 50 49 48 47 47 47 46 45 44 45 45 44 43 40 38 37 36 35 34 31 28 25
21 20 23 27 29 29 29 28 29 29 30 31 33 35 37 40 43 45 46 48 48 49 49 49 48 47 46 46 46 45 44 44 44 43 41 38 36 35 34 33 31 28 25 22
22 24 28 29 29 30 30 29 29 29 30 32 34 36 38 41 44 46 47 47 48 48 48 48 48 47 46 46 45 44 43 43 42 40 38 36 35 34 33 32 29 26 23 20
25 24 28 29 30 30 29 29 29 30 31 33 35 37 40 42 44 46 47 47 47 47 48 48 47 47 46 45 44 43 42 40 39 38 36 35 34 33 32 30 28 25 21 18
29 28 28 28 29 29 29 29 30 31 32 34 36 39 41 44 45 46 47 46 46 47 47 47 47 46 45 44 43 42 40 38 38 37 35 34 33 32 30 29 26 23 20 16
28 29 29 29 30 30 30 30 31 32 34 36 38 40 43 44 45 46 46 46 46 46 47 47 47 46 44 43 42 41 38 37 36 36 34 33 32 30 29 27 25 22 19 16
29 28 28 29 30 31 31 32 33 34 36 38 40 42 43 44 45 46 46 46 46 46 46 46 46 45 43 42 41 39 37 35 34 34 33 32 30 29 27 26 24 22 19 16
29 29 29 29 30 32 33 34 35 36 38 39 41 42 43 44 45 46 46 45 45 45 45 45 45 44 42 41 39 37 35 34 33 32 32 31 29 28 27 26 24 22 20 16
30 31 32 32 33 34 35 36 37 39 40 42 43 43 44 45 45 46 45 45 44 44 44 44 44 43 41 39 38 35 34 33 32 31 30 29 28 27 27 26 24 22 20 16
33 34 35 36 36 37 38 38 39 40 42 42 43 43 44 45 45 45 45 44 44 43 43 43 43 42 40 38 36 34 32 31 30 29 28 28 27 26 26 26 24 22 19 16
36 37 38 38 39 39 40 40 41 42 43 42 43 43 44 45 45 45 44 43 43 42 42 42 41 40 38 36 34 32 30 29 28 27 27 27 26 25 25 25 23 21 19 17
38 40 41 41 42 42 42 42 43 44 43 43 43 43 44 45 45 44 43 42 42 42 41 41 40 39 37 34 32 30 28 27 26 25 25 25 25 24 24 24 22 21 20 18
40 41 42 43 44 44 43 44 45 45 45 44 44 43 43 44 44 43 42 41 41 40 40 39 38 36 34 32 30 27 26 25 24 23 23 23 22 23 23 23 22 22 21 19
43 44 44 45 45 45 45 45 45 46 45 45 44 43 43 43 43 42 42 41 40 39 38 37 36 34 33 30 28 25 23 23 22 21 21 20 21 21 21 22 21 21 21 20
45 45 46 46 47 47 47 46 46 46 46 46 45 44 44 44 42 41 40 39 38 37 36 35 33 32 31 28 26 23 21 20 19 19 19 19 19 19 19 19 20 20 20 20
48 48 49 49 50 49 49 48 48 47 47 47 46 45 45 44 42 40 39 37 36 35 34 32 32 30 29 26 24 21 20 18 17 16 16 16 17 17 16 17 18 19 19 19
52 53 53 53 52 52 51 51 50 49 49 48 47 45 44 44 41 39 38 37 35 33 32 30 29 29 27 24 22 19 17 16 15 14 14 14 15 15 14 15 16 17 17 17
56 56 56 55 55 54 53 52 51 51 50 49 47 46 44 42 41 39 37 35 33 32 30 29 28 27 25 22 20 17 16 14 13 11 11 11 12 13 12 13 13 14 15 15
58 57 57 56 55 54 53 52 51 50 49 48 46 44 41 40 40 38 36 34 32 30 28 27 26 25 23 21 18 16 14 12 11 9 8 8 9 10 10 10 12 13 13 14
58 57 56 55 54 52 51 50 49 47 46 45 43 41 39 38 38 37 34 32 30 29 27 26 25 23 21 19 17 15 12 11 9 8 6 5 5 6 7 8 9 10 11 12
57 56 54 53 51 50 49 47 46 45 44 42 41 39 37 36 35 34 32 30 29 27 26 24 24 22 20 18 16 14 12 10 9 7 5 3 2 2 3 5 7 8 9 10